User: anonymous   Login
Location: G�ppingen
(48.7089°N, 9.6563°E)
Time: 10:50:30
(UTC+01:00)
Language:

KKS-1 - Orbit

View from above orbital plane
View from above orbital plane
View from above satellite
View from above satellite

Ground track
Ground track

The orbit data is extracted from the following two-line orbital elements,

1 33499U 09002H   19077.84983216  .00000088  00000-0  21079-4 0  9993
2 33499  98.3549 273.5944 0010099 133.6916 226.5130 14.75414719545680
Epoch (UTC): 18 March 2019 20:23:45
Eccentricity: 0.0010099
inclination: 98.3549°
perigee height: 637 km
apogee height: 651 km
right ascension of ascending node: 273.5944°
argument of perigee: 133.6916°
revolutions per day: 14.75414719
mean anomaly at epoch: 226.5130°
orbit number at epoch: 54568

The dashed part of the orbit path shows where the satellite is in the earth's shadow,  

DLR